Bangor, ME

10:54 AM EDT on May 28, 2017 (GMT -0400)
Bangor International

Weather History for KBGR - February, 2014

Change the Weather History Date:

Sunday, February 16, 2014

  Actual Average Record
Temperature  
Mean Temperature 20 °F 21 °F  
Max Temperature 27 °F 32 °F 52 °F (2006)
Min Temperature 12 °F 10 °F -27 °F (1943)
Degree Days  
Heating Degree Days 45 44  
Month to date heating degree days 779 733  
Since 1 July heating degree days 5221 5140  
Cooling Degree Days 0 0  
Month to date cooling degree days 0 0  
Year to date cooling degree days 0 0  
Moisture  
Dew Point 12 °F    
Average Humidity 67    
Maximum Humidity 88    
Minimum Humidity 46    
Precipitation  
Precipitation 0.28 in 0.09 in 1.28 in (2016)
Month to date precipitation 1.47 1.41  
Year to date precipitation 4.65 4.30  
Snow  
Snow 2.70 in 0.50 in 8.00 in (1950)
Month to date snowfall 20.4 8.6  
Since 1 July snowfall 58.4 44.6  
Snow Depth 15.00 in    
Sea Level Pressure  
Sea Level Pressure 29.52 in    
Wind  
Wind Speed 18 mph (NW)    
Max Wind Speed 30 mph    
Max Gust Speed 38 mph    
Visibility 5 miles    
Events Snow    
T = Trace of Precipitation, MM = Missing Value Source: NWS Daily Summary

Daily Weather History Graph

Daily Weather History Graph

Search for Another Location

Airport or City:

Trip Planner

Search our weather history database for the weather conditions in past years. The results will help you decide how hot, cold, wet, or windy it might be!

Date:

Astronomy

Feb. 16, 2014 Rise Set
Actual Time 6:34 AM EST 5:05 PM EST
Civil Twilight 6:04 AM EST 5:35 PM EST
Nautical Twilight 5:30 AM EST 6:09 PM EST
Astronomical Twilight 4:56 AM EST 6:43 PM EST
Moon 7:05 PM EST (2/16) 6:56 AM EST (2/16)
Length of Visible Light 11h 30m
Length of Day
10h 30m
Full, 97% of the Moon is Illuminated
Feb 16
Full
Feb 22
Last Quarter
Mar 1
New
Mar 8
First Quarter
Mar 16
Full

Hourly Weather History & Observations

Time (EST) Temp. Windchill Dew Point Humidity Pressure Visibility Wind Dir Wind Speed Gust Speed Precip Events Conditions
12:04 AM 21.9 °F 7.3 °F 19.0 °F 89% 29.48 in 0.8 mi North 18.4 mph 26.5 mph 0.00 in Snow Light Snow
12:53 AM 21.9 °F 6.2 °F 18.0 °F 85% 29.44 in 0.5 mi North 21.9 mph 28.8 mph 0.01 in Snow Snow
1:13 AM 21.9 °F 5.8 °F 18.0 °F 85% 29.41 in 1.0 mi North 23.0 mph 31.1 mph 0.00 in Snow Light Snow
1:53 AM 21.9 °F 6.2 °F 18.0 °F 85% 29.42 in 1.0 mi NNW 21.9 mph 32.2 mph 0.00 in Snow Light Snow
2:02 AM 21.9 °F 5.5 °F 18.0 °F 85% 29.40 in 0.8 mi NNW 24.2 mph 33.4 mph 0.01 in Snow Light Snow
2:53 AM 21.0 °F 3.9 °F 17.1 °F 85% 29.38 in 0.8 mi NNW 25.3 mph 32.2 mph 0.01 in Snow Light Snow
3:35 AM 21.0 °F 4.3 °F 17.1 °F 85% 29.36 in 0.8 mi North 24.2 mph 29.9 mph 0.00 in Snow Light Snow
3:53 AM 21.0 °F 6.2 °F 18.0 °F 88% 29.37 in 1.0 mi NNW 18.4 mph 27.6 mph 0.00 in Snow Light Snow
4:03 AM 21.9 °F 6.5 °F 18.0 °F 85% 29.37 in 1.0 mi NNW 20.7 mph 29.9 mph 0.00 in Snow Light Snow
4:53 AM 21.9 °F 6.9 °F 17.1 °F 82% 29.38 in 1.2 mi NNW 19.6 mph 29.9 mph 0.00 in Snow Light Snow
5:30 AM 21.0 °F 6.2 °F 17.1 °F 85% 29.36 in 2.0 mi NNW 18.4 mph 26.5 mph 0.00 in Snow Light Snow
5:43 AM 21.0 °F 5.7 °F 17.1 °F 85% 29.36 in 2.0 mi NNW 19.6 mph - 0.00 in Snow Light Snow
5:53 AM 21.0 °F 7.6 °F 17.1 °F 85% 29.37 in 2.0 mi NW 15.0 mph - 0.00 in Snow Light Snow
6:53 AM 21.9 °F 8.7 °F 16.0 °F 78% 29.40 in 2.5 mi NW 15.0 mph 25.3 mph 0.00 in Snow Light Snow
7:08 AM 21.9 °F 7.8 °F 16.0 °F 78% 29.39 in 1.8 mi NW 17.3 mph 24.2 mph 0.00 in Snow Light Snow
7:20 AM 21.9 °F 6.5 °F 15.1 °F 75% 29.40 in 2.0 mi NW 20.7 mph 27.6 mph 0.00 in Snow Light Snow
7:27 AM 21.9 °F 6.9 °F 15.1 °F 75% 29.41 in 2.0 mi NW 19.6 mph 27.6 mph 0.00 in Snow Light Snow
7:45 AM 21.9 °F 8.2 °F 14.0 °F 72% 29.42 in 4.0 mi NW 16.1 mph 23.0 mph 0.00 in Snow Light Snow
7:53 AM 21.9 °F 6.5 °F 14.0 °F 72% 29.43 in 4.0 mi NW 20.7 mph 28.8 mph 0.00 in Snow Light Snow
8:53 AM 23.0 °F 9.2 °F 12.9 °F 65% 29.45 in 7.0 mi NW 17.3 mph 25.3 mph 0.00 in Snow Blowing Snow
9:53 AM 24.1 °F 9.4 °F 14.0 °F 65% 29.48 in 4.0 mi NW 20.7 mph 32.2 mph N/A   Haze
10:53 AM 26.1 °F 12.0 °F 10.9 °F 53% 29.51 in 5.0 mi NW 20.7 mph 33.4 mph N/A Snow Blowing Snow
11:53 AM 26.1 °F 14.5 °F 10.0 °F 51% 29.52 in 10.0 mi WNW 13.8 mph 28.8 mph N/A   Mostly Cloudy
12:53 PM 26.1 °F 14.5 °F 9.0 °F 49% 29.55 in 10.0 mi WNW 13.8 mph 25.3 mph N/A   Scattered Clouds
1:53 PM 26.1 °F 14.5 °F 8.1 °F 47% 29.58 in 10.0 mi West 13.8 mph 25.3 mph N/A   Mostly Cloudy
2:53 PM 25.0 °F 12.6 °F 7.0 °F 46% 29.60 in 10.0 mi West 15.0 mph 23.0 mph N/A   Mostly Cloudy
3:53 PM 24.1 °F 12.5 °F 6.1 °F 46% 29.63 in 10.0 mi West 12.7 mph 21.9 mph N/A   Mostly Cloudy
4:53 PM 21.0 °F 8.6 °F 6.1 °F 53% 29.68 in 10.0 mi NW 12.7 mph 21.9 mph N/A   Partly Cloudy
5:53 PM 19.0 °F 6.8 °F 3.9 °F 52% 29.73 in 10.0 mi WNW 11.5 mph - N/A   Partly Cloudy
6:53 PM 17.6 °F 7.3 °F 3.2 °F 53% 29.76 in 10.0 mi WNW 8.1 mph - N/A   Clear
7:53 PM 16.0 °F 7.4 °F 1.9 °F 54% 29.78 in 10.0 mi Variable 5.8 mph - N/A   Clear
8:53 PM 15.1 °F 5.2 °F 1.9 °F 56% 29.79 in 10.0 mi West 6.9 mph - N/A   Clear
9:53 PM 15.1 °F 3.3 °F 1.9 °F 56% 29.80 in 10.0 mi West 9.2 mph - N/A   Clear
10:53 PM 14.0 °F 6.5 °F 1.9 °F 59% 29.82 in 10.0 mi West 4.6 mph - N/A   Clear
11:53 PM 12.0 °F 2.7 °F 1.9 °F 64% 29.85 in 10.0 mi West 5.8 mph - N/A   Clear